Valdosta, GA

1:49 PM EST on February 25, 2017 (GMT -0500)
Valdosta Regional

Weather History for KVLD - August, 2014

Change the Weather History Date:

Sunday, August 10, 2014

  Actual Average Record
Temperature  
Mean Temperature 87 °F 82 °F  
Max Temperature 99 °F 92 °F 99 °F (2014)
Min Temperature 74 °F 72 °F 64 °F (2002)
Cooling Degree Days 22 16  
Month to date cooling degree days 218 167  
Year to date cooling degree days 1985 1519  
Since 1 June cooling degree days 1382 1107  
Growing Degree Days 36 (Base 50)    
Moisture  
Dew Point 72 °F    
Average Humidity 65    
Maximum Humidity 87    
Minimum Humidity 42    
Precipitation  
Precipitation 0.08 in 0.16 in 1.98 in (2004)
Month to date precipitation 1.17 1.96  
Year to date precipitation 30.52 33.65  
Sea Level Pressure  
Sea Level Pressure 30.03 in    
Wind  
Wind Speed 2 mph (SSW)    
Max Wind Speed 16 mph    
Max Gust Speed 21 mph    
Visibility 9 miles    
Events Rain , Thunderstorm    
T = Trace of Precipitation, MM = Missing Value Source: NWS Daily Summary

Daily Weather History Graph

Daily Weather History Graph

Search for Another Location

Airport or City:

Trip Planner

Search our weather history database for the weather conditions in past years. The results will help you decide how hot, cold, wet, or windy it might be!

Date:

Astronomy

Aug. 10, 2014 Rise Set
Actual Time 6:56 AM EDT 8:20 PM EDT
Civil Twilight 6:30 AM EDT 8:45 PM EDT
Nautical Twilight 6:00 AM EDT 9:16 PM EDT
Astronomical Twilight 5:28 AM EDT 9:48 PM EDT
Moon 8:11 PM EDT (8/10) 6:44 AM EDT (8/10)
Length of Visible Light 14h 15m
Length of Day
13h 23m
Full, 100% of the Moon is Illuminated
Aug 10
Full
Aug 10
Full
Aug 17
Last Quarter
Aug 25
New
Sep 2
First Quarter

Hourly Weather History & Observations

Time (EDT) Temp. Heat Index Dew Point Humidity Pressure Visibility Wind Dir Wind Speed Gust Speed Precip Events Conditions
12:53 AM 77.0 °F - 71.1 °F 82% 30.04 in 10.0 mi Calm Calm - N/A   Clear
1:53 AM 75.9 °F - 70.0 °F 82% 30.02 in 10.0 mi Calm Calm - N/A   Clear
2:53 AM 77.0 °F - 72.0 °F 84% 30.01 in 10.0 mi South 4.6 mph - N/A   Clear
3:53 AM 75.9 °F - 71.1 °F 85% 30.01 in 10.0 mi Calm Calm - N/A   Clear
5:53 AM 75.0 °F - 70.0 °F 84% 30.01 in 10.0 mi Calm Calm - N/A   Clear
6:53 AM 73.9 °F - 70.0 °F 87% 30.02 in 8.0 mi Calm Calm - N/A   Clear
8:53 AM 84.9 °F 93.3 °F 75.0 °F 72% 30.07 in 10.0 mi Calm Calm - N/A   Clear
9:53 AM 90.0 °F 100.2 °F 75.0 °F 61% 30.08 in 10.0 mi Variable 4.6 mph - N/A   Partly Cloudy
10:25 AM 89.6 °F 99.8 °F 75.2 °F 62% 30.06 in 10.0 mi Variable 5.8 mph - N/A   Mostly Cloudy
10:53 AM 91.0 °F 100.4 °F 73.9 °F 57% 30.07 in 10.0 mi Calm Calm - N/A   Mostly Cloudy
11:00 AM 89.6 °F 98.2 °F 73.4 °F 59% 30.05 in 10.0 mi Variable 3.5 mph - N/A   Partly Cloudy
11:53 AM 93.0 °F 100.7 °F 72.0 °F 50% 30.05 in 10.0 mi Calm Calm - N/A   Scattered Clouds
12:53 PM 99.0 °F 107.0 °F 71.1 °F 40% 30.04 in 10.0 mi Variable 3.5 mph - N/A   Partly Cloudy
1:53 PM 93.0 °F 100.7 °F 72.0 °F 50% 30.04 in 10.0 mi South 10.4 mph 19.6 mph N/A   Mostly Cloudy
2:40 PM 84.2 °F 92.3 °F 75.2 °F 74% 30.02 in 1.8 mi SSW 8.1 mph - 0.03 in Rain Heavy Rain
2:50 PM 80.6 °F 84.6 °F 71.6 °F 74% 30.01 in 3.0 mi South 8.1 mph 20.7 mph 0.04 in Rain Light Rain
2:53 PM 81.0 °F 84.9 °F 71.1 °F 72% 30.04 in 6.0 mi SSW 6.9 mph 20.7 mph 0.04 in Rain Light Rain
3:53 PM 91.0 °F 102.9 °F 75.9 °F 61% 30.01 in 10.0 mi Variable 5.8 mph - 0.00 in   Partly Cloudy
4:53 PM 91.9 °F 101.3 °F 73.9 °F 55% 30.00 in 10.0 mi Variable 6.9 mph - N/A Thunderstorm Scattered Clouds
5:53 PM 84.9 °F 89.4 °F 70.0 °F 61% 30.02 in 10.0 mi Variable 3.5 mph - N/A Thunderstorm Mostly Cloudy
6:10 PM 84.2 °F 88.4 °F 69.8 °F 62% 30.00 in 10.0 mi Calm Calm - N/A   Mostly Cloudy
6:53 PM 80.1 °F 83.8 °F 72.0 °F 76% 30.01 in 8.0 mi Calm Calm - 0.01 in Rain Light Rain
7:53 PM 80.1 °F 84.5 °F 73.9 °F 81% 29.99 in 10.0 mi Calm Calm - 0.03 in   Partly Cloudy
8:53 PM 77.0 °F - 72.0 °F 84% 30.00 in 6.0 mi Calm Calm - N/A   Haze
9:53 PM 77.0 °F - 72.0 °F 84% 30.02 in 10.0 mi Calm Calm - N/A   Clear
10:53 PM 75.9 °F - 72.0 °F 87% 30.03 in 10.0 mi Calm Calm - N/A   Clear
11:53 PM 77.0 °F - 72.0 °F 84% 30.03 in 6.0 mi Calm Calm - N/A   Haze